Overview Statistics Trail Chart Weather Telemetry Raw packets
 

This is the latest recevied weather packets stored in our database for station/object 4S6DRJ-13. If no packets are shown the sender has not sent any weather packets the latest 10 day(s).

<< 136 137 138 139 140 141 142 >>
Time Temp. Humidity Pressure Rain* Wind** Luminosity Snow
1788255765 30.56° C 72% 1007.9 hPa 0 mm 0.89 m/s, 179° 908 W/m² -
1788255703 31.11° C 71% 1008 hPa 0 mm 3.13 m/s, 211° 364 W/m² -
1788255643 31.11° C 71% 1007.8 hPa 0 mm 2.24 m/s, 334° 343 W/m² -
1788255582 31.11° C 71% 1007.7 hPa 0 mm 1.79 m/s, 139° 347 W/m² -
1788255521 31.11° C 71% 1008 hPa 0 mm 2.24 m/s, 217° 882 W/m² -
1788255460 30.56° C 72% 1007.8 hPa 0 mm 1.34 m/s, 206° 253 W/m² -
1788255399 30.56° C 72% 1007.8 hPa 0 mm 1.79 m/s, 294° 285 W/m² -
1788255338 30.56° C 72% 1008.1 hPa 0 mm 1.79 m/s, 296° 697 W/m² -
1788255277 30.56° C 71% 1008.1 hPa 0 mm 2.24 m/s, 264° 840 W/m² -
1788255221 30.56° C 71% 1007.9 hPa 0 mm 2.68 m/s, 196° 315 W/m² -
1788255155 30.56° C 72% 1007.9 hPa 0 mm 2.68 m/s, 144° 859 W/m² -
1788255094 30° C 73% 1007.8 hPa 0 mm 1.79 m/s, 137° 901 W/m² -
1788255033 30° C 74% 1007.9 hPa 0 mm 2.24 m/s, 227° 910 W/m² -
1788254972 30° C 74% 1007.9 hPa 0 mm 2.24 m/s, 218° 413 W/m² -
1788254911 30° C 73% 1007.8 hPa 0 mm 2.24 m/s, 213° 276 W/m² -
1788254850 30.56° C 73% 1007.8 hPa 0 mm 2.24 m/s, 276° 381 W/m² -
1788254789 30.56° C 73% 1007.8 hPa 0 mm 2.68 m/s, 199° 205 W/m² -
1788254728 30.56° C 73% 1007.9 hPa 0 mm 3.58 m/s, 242° 227 W/m² -
1788254667 30.56° C 73% 1007.9 hPa 0 mm 2.68 m/s, 267° 290 W/m² -
1788254606 30.56° C 74% 1007.8 hPa 0 mm 0.89 m/s, 262° 431 W/m² -
1788254545 30.56° C 73% 1008 hPa 0 mm 2.24 m/s, 195° 245 W/m² -
1788254485 30° C 73% 1008 hPa 0 mm 2.68 m/s, 281° 305 W/m² -
1788254422 30° C 74% 1008 hPa 0 mm 2.24 m/s, 246° 1104 W/m² -
1788254361 30° C 74% 1007.9 hPa 0 mm 4.02 m/s, 221° 1105 W/m² -
1788254301 30° C 73% 1007.9 hPa 0 mm 3.58 m/s, 206° 300 W/m² -

* Rain latest hour (hover to see other rain measurements)
** Current wind speed in m/s (hover to see current wind gust speed)